Location: Bieg
(49.3499°N, 10.3835°E)
Time: 00:52:15
(UTC+00:00)

Cosmos 1455 - Pass Details

Date: 23 May 2024
Orbit: 445 x 461 km, 82.5° (Epoch: 15 June)

Event Time Altitude Azimuth Distance (km) Brightness Sun altitude
Rises 02:01:23 0° 330° (NNW) 2,460 5.9 -10.9°
Reaches altitude 10° 02:04:35 10° 297° (WNW) 1,583 4.5 -10.5°
Maximum altitude 02:05:51 12° 275° (W) 1,481 4.2 -10.4°
Enters shadow 02:06:57 10° 256° (WSW) 1,556 4.1 -10.3°
